Weather History for Knox, IN

Change the Weather History Date:

Friday, February 8, 2013

  Actual Average (KVPZ) Record (KVPZ)
Temperature  
Mean Temperature 32 °F 26 °F  
Max Temperature 35 °F 33 °F 50 °F (2001)
Min Temperature 29 °F 18 °F -8 °F (2007)
Degree Days  
Heating Degree Days 33 39  
Month to date heating degree days 321  
Since 1 July heating degree days 4006  
Cooling Degree Days 0 0  
Month to date cooling degree days 0  
Year to date cooling degree days 0  
Moisture  
Dew Point 29 °F    
Average Humidity 88    
Maximum Humidity 100    
Minimum Humidity 71    
Precipitation  
Precipitation 0.00 in 0.05 in 0.42 in (2001)
Month to date precipitation 0.37  
Year to date precipitation 2.12  
Sea Level Pressure  
Sea Level Pressure 30.15 in    
Wind  
Wind Speed 16 mph (NNW)    
Max Wind Speed 24 mph    
Max Gust Speed 31 mph    
Visibility 10 miles    
Events      
T = Trace of Precipitation, MM = Missing Value Source: NWS Daily Summary

Daily Weather History Graph

Daily Weather History Graph

Search for Another Location

Airport:

Trip Planner

Search our weather history database for the weather conditions in past years. The results will help you decide how hot, cold, wet, or windy it might be!

Date:

Astronomy

Feb. 08, 2013 Rise Set
Actual Time 6:50 AM CST 5:12 PM CST
Civil Twilight 6:21 AM CST 5:40 PM CST
Nautical Twilight 5:48 AM CST 6:13 PM CST
Astronomical Twilight 5:16 AM CST 6:45 PM CST
Moon 5:18 AM CST (2/8) 3:44 PM CST (2/8)
Length of Visible Light 11h 19m
Length of Day
10h 22m
Waning Crescent, 3% of the Moon is Illuminated
Feb 8
Waning Crescent
Feb 10
New
Feb 17
First Quarter
Feb 25
Full
Mar 4
Last Quarter

Hourly Weather History & Observations

Time (CST) Temp. Windchill Dew Point Humidity Pressure Visibility Wind Dir Wind Speed Gust Speed Precip Events Conditions
12:15 AM 32.9 °F 22.0 °F 32.9 °F 100% 29.85 in 5.0 mi NW 17.3 mph 23.0 mph N/A   Overcast
12:35 AM 32.9 °F 22.4 °F 32.9 °F 100% 29.85 in 7.0 mi NW 16.1 mph 24.2 mph N/A   Overcast
12:55 AM 32.9 °F 22.8 °F 32.9 °F 100% 29.86 in 7.0 mi NW 15.0 mph - N/A   Overcast
1:15 AM 32.9 °F 23.2 °F 32.9 °F 100% 29.87 in 7.0 mi NW 13.8 mph 19.6 mph N/A   Overcast
1:35 AM 33.1 °F 23.4 °F 33.1 °F 100% 29.87 in 10.0 mi NW 13.8 mph 19.6 mph N/A   Overcast
1:55 AM 33.4 °F 23.9 °F 33.3 °F 99% 29.88 in 10.0 mi NW 13.8 mph 19.6 mph N/A   Overcast
2:15 AM 33.8 °F 23.2 °F 33.4 °F 99% 29.88 in 10.0 mi NNW 17.3 mph 23.0 mph N/A   Overcast
2:35 AM 34.0 °F 22.7 °F 33.3 °F 97% 29.88 in 10.0 mi NNW 19.6 mph 27.6 mph N/A   Overcast
2:55 AM 34.0 °F 22.4 °F 32.4 °F 94% 29.90 in 10.0 mi NNW 20.7 mph 26.5 mph N/A   Overcast
3:15 AM 33.8 °F 21.9 °F 32.0 °F 93% 29.90 in 10.0 mi NNW 21.9 mph 26.5 mph N/A   Overcast
3:35 AM 33.4 °F 22.3 °F 32.0 °F 94% 29.92 in 10.0 mi NW 18.4 mph 26.5 mph N/A   Overcast
3:55 AM 33.1 °F 22.2 °F 32.0 °F 96% 29.94 in 7.0 mi NW 17.3 mph 21.9 mph N/A   Overcast
4:15 AM 32.9 °F 22.4 °F 32.0 °F 96% 29.95 in 10.0 mi NW 16.1 mph 20.7 mph N/A   Overcast
4:35 AM 32.5 °F 21.5 °F 31.8 °F 97% 29.96 in 10.0 mi NNW 17.3 mph - N/A   Overcast
4:55 AM 32.9 °F 21.3 °F 31.5 °F 94% 29.97 in 10.0 mi NNW 19.6 mph 26.5 mph N/A   Overcast
5:15 AM 32.9 °F 21.0 °F 30.9 °F 92% 29.98 in 10.0 mi NNW 20.7 mph 27.6 mph N/A   Overcast
5:35 AM 32.5 °F 19.6 °F 30.7 °F 93% 29.99 in 10.0 mi NNW 24.2 mph 28.8 mph N/A   Overcast
5:55 AM 32.5 °F 21.9 °F 30.6 °F 92% 30.00 in 10.0 mi NNW 16.1 mph 25.3 mph N/A   Overcast
6:15 AM 32.2 °F 20.7 °F 30.9 °F 95% 30.02 in 10.0 mi NNW 18.4 mph 25.3 mph N/A   Overcast
6:35 AM 32.2 °F 19.7 °F 30.7 °F 94% 30.03 in 10.0 mi North 21.9 mph 26.5 mph N/A   Overcast
6:55 AM 32.4 °F 20.6 °F 30.2 °F 92% 30.04 in 10.0 mi North 19.6 mph 25.3 mph N/A   Overcast
7:15 AM 32.4 °F 20.3 °F 30.0 °F 91% 30.05 in 10.0 mi North 20.7 mph 25.3 mph N/A   Overcast
7:35 AM 32.4 °F 20.3 °F 29.3 °F 88% 30.07 in 10.0 mi North 20.7 mph 25.3 mph N/A   Overcast
7:55 AM 32.2 °F 22.3 °F 29.3 °F 89% 30.08 in 10.0 mi North 13.8 mph 18.4 mph N/A   Overcast
8:15 AM 32.2 °F 22.3 °F 29.5 °F 90% 30.10 in 10.0 mi North 13.8 mph 17.3 mph N/A   Overcast
8:35 AM 32.4 °F 21.7 °F 29.3 °F 88% 30.12 in 10.0 mi NNW 16.1 mph 23.0 mph N/A   Overcast
8:55 AM 32.2 °F 21.1 °F 29.1 °F 88% 30.13 in 10.0 mi North 17.3 mph 21.9 mph N/A   Overcast
9:15 AM 32.2 °F 21.4 °F 28.6 °F 87% 30.14 in 10.0 mi North 16.1 mph - N/A   Overcast
9:35 AM 32.4 °F 23.0 °F 28.9 °F 87% 30.14 in 10.0 mi North 12.7 mph 17.3 mph N/A   Overcast
9:55 AM 32.9 °F 22.8 °F 29.5 °F 87% 30.15 in 10.0 mi North 15.0 mph 19.6 mph N/A   Overcast
10:15 AM 32.7 °F 20.7 °F 29.1 °F 87% 30.16 in 10.0 mi North 20.7 mph 24.2 mph N/A   Overcast
10:35 AM 32.7 °F 20.7 °F 28.6 °F 85% 30.18 in 10.0 mi NNW 20.7 mph 25.3 mph N/A   Overcast
10:55 AM 32.9 °F 22.0 °F 28.2 °F 83% 30.19 in 10.0 mi North 17.3 mph 31.1 mph N/A   Overcast
11:15 AM 32.9 °F 22.4 °F 28.2 °F 83% 30.20 in 10.0 mi North 16.1 mph 23.0 mph N/A   Overcast
11:35 AM 32.9 °F 21.6 °F 28.0 °F 82% 30.19 in 10.0 mi North 18.4 mph 24.2 mph N/A   Overcast
11:55 AM 33.1 °F 21.5 °F 27.7 °F 81% 30.20 in 10.0 mi North 19.6 mph 24.2 mph N/A   Overcast
12:15 PM 33.4 °F 21.1 °F 27.9 °F 80% 30.20 in 10.0 mi North 23.0 mph - N/A   Mostly Cloudy
12:35 PM 34.5 °F 23.8 °F 27.5 °F 76% 30.20 in 10.0 mi North 18.4 mph 27.6 mph N/A   Mostly Cloudy
12:55 PM 34.9 °F 23.9 °F 27.7 °F 75% 30.20 in 10.0 mi North 19.6 mph 29.9 mph N/A   Mostly Cloudy
1:15 PM 35.4 °F 23.5 °F 27.3 °F 72% 30.21 in 10.0 mi North 24.2 mph 28.8 mph N/A   Mostly Cloudy
1:35 PM 34.7 °F 23.7 °F 26.2 °F 71% 30.22 in 10.0 mi North 19.6 mph 26.5 mph N/A   Scattered Clouds
1:55 PM 34.2 °F 22.6 °F 26.4 °F 73% 30.21 in 10.0 mi North 20.7 mph - N/A   Mostly Cloudy
2:15 PM 34.2 °F 22.1 °F 26.8 °F 74% 30.22 in 10.0 mi North 23.0 mph 29.9 mph N/A   Mostly Cloudy
2:35 PM 33.3 °F 22.5 °F 26.2 °F 75% 30.23 in 10.0 mi North 17.3 mph 24.2 mph N/A   Overcast
2:55 PM 33.1 °F 22.6 °F 26.2 °F 76% 30.24 in 10.0 mi North 16.1 mph 27.6 mph N/A   Overcast
3:15 PM 32.7 °F 23.4 °F 26.1 °F 76% 30.25 in 10.0 mi North 12.7 mph - N/A   Overcast
3:35 PM 32.4 °F 22.1 °F 26.1 °F 78% 30.25 in 10.0 mi North 15.0 mph 18.4 mph N/A   Overcast
3:55 PM 32.2 °F 23.2 °F 25.7 °F 77% 30.26 in 10.0 mi North 11.5 mph - N/A   Overcast
4:15 PM 32.2 °F 23.8 °F 25.9 °F 78% 30.26 in 10.0 mi North 10.4 mph - N/A   Overcast
4:35 PM 32.0 °F 23.6 °F 26.4 °F 80% 30.27 in 10.0 mi North 10.4 mph - N/A   Overcast
4:55 PM 31.8 °F 23.9 °F 28.2 °F 87% 30.27 in 10.0 mi NNW 9.2 mph - N/A   Overcast
5:15 PM 31.3 °F 22.7 °F 29.8 °F 94% 30.28 in 7.0 mi NW 10.4 mph - N/A   Overcast
5:35 PM 31.1 °F 21.9 °F 30.4 °F 97% 30.29 in 2.0 mi NNW 11.5 mph - N/A   Overcast
6:15 PM 30.7 °F 23.3 °F 30.2 °F 98% 30.30 in 4.0 mi NNW 8.1 mph - N/A   Overcast
6:35 PM 30.9 °F 21.7 °F 29.8 °F 96% 30.32 in 10.0 mi NW 11.5 mph - N/A   Overcast
6:55 PM 30.7 °F 22.0 °F 28.9 °F 93% 30.32 in 10.0 mi NW 10.4 mph - N/A   Overcast
7:15 PM 30.6 °F 22.4 °F 28.6 °F 92% 30.32 in 10.0 mi NW 9.2 mph - N/A   Overcast
7:35 PM 30.2 °F 23.4 °F 28.4 °F 93% 30.33 in 10.0 mi WNW 6.9 mph - N/A   Overcast
7:55 PM 30.2 °F 21.9 °F 28.4 °F 93% 30.33 in 10.0 mi WNW 9.2 mph - N/A   Overcast
8:15 PM 30.0 °F 24.1 °F 28.2 °F 93% 30.33 in 10.0 mi WNW 5.8 mph - N/A   Overcast
8:35 PM 30.0 °F 24.1 °F 28.2 °F 93% 30.34 in 10.0 mi WNW 5.8 mph - N/A   Overcast
8:55 PM 30.2 °F 25.4 °F 28.4 °F 93% 30.34 in 10.0 mi WNW 4.6 mph - N/A   Overcast
9:15 PM 30.2 °F 24.3 °F 28.4 °F 93% 30.34 in 10.0 mi WNW 5.8 mph - N/A   Overcast
9:35 PM 30.2 °F - 28.2 °F 92% 30.34 in 10.0 mi Calm Calm - N/A   Overcast
9:55 PM 30.2 °F - 28.4 °F 93% 30.34 in 10.0 mi Calm Calm - N/A   Overcast
10:15 PM 30.2 °F 26.7 °F 27.0 °F 88% 30.35 in 10.0 mi NNW 3.5 mph - N/A   Overcast
10:35 PM 30.4 °F 26.9 °F 25.9 °F 83% 30.35 in 10.0 mi NNE 3.5 mph - N/A   Overcast
10:55 PM 30.2 °F 25.4 °F 25.3 °F 82% 30.35 in 10.0 mi NE 4.6 mph - N/A   Overcast
11:15 PM 29.8 °F 24.9 °F 24.3 °F 80% 30.35 in 10.0 mi ENE 4.6 mph - N/A   Overcast
11:35 PM 29.7 °F 24.7 °F 23.9 °F 79% 30.35 in 10.0 mi ENE 4.6 mph - N/A   Overcast
11:55 PM 29.3 °F 25.6 °F 23.7 °F 80% 30.35 in 10.0 mi ENE 3.5 mph - N/A   Overcast